RH
42 37 36 35 33 30 27 28 32 36 42 53 58 67 70 74 72 70 66 57 45 38 36 35 34 31 30 31 33 40 48 54 58 58 58 57 57 59 55 82 79 57 69
47 41 35 32 28 25 24 24 25 30 39 51 59 65 67 67 62 50 41 39 39 35 30 31 33 35 34 34 32 34 39 54 55 58 60 49 51 46 56 48 54 54 56
45 48 38 33 29 27 27 26 26 27 33 42 52 54 51 46 44 44 40 33 32 34 36 37 36 32 27 22 17 19 24 53 49 56 56 54 55 66 58 58 54 58 62
48 52 50 38 32 31 31 30 31 32 35 38 39 40 40 39 37 33 34 36 38 39 38 34 29 20 12 6 3 2 8 38 51 52 52 58 60 66 68 55 59 54 65
50 56 49 36 36 35 34 35 35 35 36 35 34 33 32 32 33 35 39 41 42 36 30 23 15 8 3 2 3 6 8 19 42 46 56 59 60 61 65 69 50 48 48
54 58 42 39 38 38 38 38 38 37 35 34 32 31 32 35 40 44 46 40 35 31 27 18 9 2 3 5 7 9 10 11 12 28 51 60 59 57 51 46 47 49 44
56 59 47 45 43 44 44 42 40 39 38 34 32 34 37 43 46 43 40 38 34 30 20 8 2 4 6 8 9 10 11 19 19 36 55 55 47 46 42 44 59 61 65
54 57 59 49 48 48 47 46 44 40 37 35 35 37 43 47 45 46 41 36 28 13 4 2 4 6 8 9 10 11 15 23 31 24 38 54 47 49 53 64 73 84 80
55 59 60 53 51 52 51 50 46 41 38 36 38 42 48 49 50 42 38 28 14 5 3 4 6 8 9 10 12 16 20 20 35 36 48 50 50 55 59 60 59 59 72
56 60 64 58 56 54 54 52 48 42 39 38 43 48 52 50 44 37 30 18 8 5 5 6 8 9 10 14 18 22 22 30 36 41 45 52 51 58 52 51 47 52 58
56 60 63 62 57 56 56 54 49 44 40 42 48 53 51 45 39 31 22 15 10 7 7 8 9 12 16 20 21 23 27 36 41 44 45 49 52 54 50 50 51 55 58
56 60 66 59 58 58 57 55 50 44 42 46 54 52 48 43 36 29 25 12 8 8 9 10 13 18 22 22 22 28 35 40 43 44 47 49 48 54 54 55 58 63 64
59 63 70 62 61 60 59 56 51 44 44 54 55 53 48 44 39 26 13 9 8 9 11 15 20 23 24 24 25 33 40 44 48 50 53 56 58 58 60 63 66 68 70
59 64 72 68 64 62 59 56 50 45 51 57 59 50 45 42 29 16 10 9 9 10 15 21 24 26 27 26 30 24 45 52 54 58 63 64 65 66 71 72 71 78 84
61 67 72 70 65 63 61 57 50 50 57 63 57 47 45 34 21 10 10 9 10 17 22 26 28 28 28 29 23 22 59 65 64 67 66 67 72 80 81 82 86 85 80
59 66 72 71 67 66 63 57 52 57 65 65 55 50 39 24 12 10 10 12 18 23 27 29 31 30 30 25 22 31 78 74 72 69 69 67 69 70 81 86 92 88 96
55 61 71 73 70 68 65 56 56 64 71 63 53 44 31 14 11 10 13 19 24 27 30 33 34 32 32 28 26 78 86 81 73 70 68 67 66 83 88 80 79 89 94
49 55 66 70 74 72 65 58 62 72 70 58 47 35 15 12 11 13 19 24 27 31 35 39 40 42 44 39 75 90 87 76 71 69 69 70 82 89 77 82 94 97 87
50 55 62 73 77 73 64 62 69 73 62 50 39 17 12 12 14 18 22 26 31 35 41 42 46 48 49 65 87 94 83 73 71 72 73 87 91 78 83 96 97 93 84
50 55 64 76 78 70 65 65 76 68 51 42 22 14 13 15 18 21 26 32 35 40 44 45 48 54 59 72 93 92 83 78 80 80 88 86 78 86 98 90 87 95 78
53 61 72 76 73 68 66 76 72 56 42 27 16 14 16 18 20 27 33 36 40 44 48 48 51 60 73 80 88 93 88 86 90 94 91 80 93 97 81 75 85 91 92
57 65 71 72 70 69 75 75 58 43 31 18 15 16 18 19 28 34 35 33 45 48 46 50 60 71 74 80 87 92 90 94 96 88 88 97 91 81 77 84 88 85 88
60 67 73 74 74 76 78 67 46 34 21 16 18 19 18 31 36 36 33 43 49 49 54 62 69 71 77 79 85 86 91 90 90 87 96 86 80 80 84 86 85 88 87
63 74 80 81 80 80 74 52 42 22 18 18 19 19 33 37 36 38 47 42 51 59 65 73 76 80 81 81 84 88 91 80 89 96 95 77 78 80 87 84 84 87 92
71 79 85 85 83 78 52 44 23 19 19 19 20 34 39 40 40 41 44 55 64 67 88 89 92 92 88 90 93 93 91 95 97 94 80 78 81 89 86 88 89 85 92
80 86 87 88 80 57 47 24 20 20 19 19 34 39 40 42 40 47 53 66 80 92 69 75 100 97 95 93 91 91 94 97 89 87 83 87 93 94 94 95 91 88 100
Wind_Speed
10 13 15 16 15 16 16 17 16 15 11 10 9 8 9 9 8 7 7 7 8 9 11 13 15 16 18 20 21 21 22 20 20 24 27 26 19 19 25 21 22 33 32
11 14 16 18 18 19 19 17 16 15 13 12 11 10 10 11 9 9 9 9 10 11 13 14 17 20 22 23 25 24 25 21 22 23 28 21 29 20 27 36 25 28 31
15 14 17 19 19 19 18 17 16 14 15 15 13 13 12 12 10 9 8 10 12 14 17 20 22 23 23 23 23 22 22 20 21 19 19 24 23 37 31 30 25 23 29
15 15 16 18 18 18 17 16 15 15 16 14 13 11 10 9 10 10 11 12 15 18 20 22 23 23 22 23 24 23 22 20 19 19 17 21 26 31 38 20 30 27 28
16 16 17 19 18 16 15 14 13 14 13 11 10 10 10 10 10 11 13 16 19 21 24 25 25 24 23 22 22 23 23 22 20 20 21 22 23 26 31 44 32 36 32
17 17 19 18 17 14 13 12 11 12 12 10 10 10 10 10 11 14 17 20 23 25 25 24 22 21 20 21 23 24 25 25 25 22 20 21 24 27 29 36 41 40 39
18 18 19 18 16 14 12 12 11 11 10 8 8 9 10 12 14 17 19 21 23 23 22 20 19 19 20 21 23 25 26 24 26 24 22 22 22 25 27 31 38 39 42
19 18 18 17 16 14 13 11 10 10 8 6 5 6 7 10 13 16 18 20 20 20 19 18 18 19 21 23 25 26 26 24 24 27 25 23 24 24 25 28 32 39 39
20 19 19 18 17 15 14 12 10 8 6 4 2 3 7 10 14 16 18 19 19 18 18 17 18 19 22 25 27 27 27 29 23 25 23 24 26 25 26 27 30 34 37
20 18 18 18 18 16 14 12 10 7 5 2 0 4 7 11 14 16 18 18 17 17 17 18 19 21 24 27 28 28 29 25 25 23 25 25 27 27 27 28 32 31 33
22 19 18 19 19 17 15 13 10 7 5 2 2 6 9 13 15 17 18 17 17 17 17 18 20 23 27 29 30 30 28 25 25 25 25 27 27 29 30 31 31 30 32
21 19 19 21 20 18 16 14 11 8 6 3 4 7 10 14 17 18 18 16 16 16 17 20 23 26 29 32 33 28 25 26 27 27 28 28 29 30 30 30 31 33 34
20 19 20 21 21 19 17 15 12 9 6 4 5 8 11 15 17 18 16 15 16 17 19 23 26 30 32 33 31 25 27 27 28 28 29 30 30 31 30 31 34 34 35
20 19 19 20 20 19 18 16 12 9 7 5 7 10 13 17 18 17 15 16 18 20 22 26 29 31 33 33 27 33 29 29 28 29 28 29 29 29 31 33 32 35 37
18 20 20 19 20 20 19 15 12 10 7 6 9 12 16 18 17 15 16 18 20 23 26 29 31 33 34 29 34 34 29 29 30 28 28 28 28 30 29 32 35 36 40
16 18 20 20 20 20 17 14 12 9 6 8 11 15 17 17 15 16 18 20 23 26 29 31 32 33 32 33 34 32 29 29 28 29 30 29 29 28 32 32 33 34 38
12 15 17 19 19 18 16 14 11 8 7 10 13 16 16 15 16 18 20 23 27 30 32 32 31 32 32 33 34 30 28 26 26 28 30 31 30 32 33 37 35 39 35
7 10 14 18 18 18 15 14 11 7 8 12 15 16 14 15 17 20 23 27 30 32 31 29 31 30 27 32 28 28 25 26 27 27 29 30 32 32 35 38 44 30 32
4 8 11 15 17 16 15 12 9 8 9 13 16 15 15 17 20 23 27 30 32 32 29 30 29 28 28 26 26 26 27 27 28 28 28 31 34 34 37 38 35 38 43
3 6 10 13 15 15 13 10 9 10 12 14 15 15 17 19 22 26 29 31 31 30 29 28 26 25 25 24 23 25 26 29 31 31 32 32 33 35 36 42 41 39 44
3 5 8 10 12 12 10 9 9 10 12 14 15 16 18 22 25 29 31 30 30 29 27 26 24 22 21 22 25 25 27 29 35 37 38 37 35 34 42 43 37 36 41
4 5 7 9 10 11 10 9 9 11 12 14 16 18 20 24 28 29 30 30 26 26 28 26 23 21 22 23 24 26 27 30 34 37 38 37 38 43 40 33 32 36 35
7 8 9 10 11 11 10 10 11 11 13 15 18 20 23 26 27 28 28 27 25 25 25 24 25 25 24 24 25 28 30 33 35 35 35 40 42 38 32 32 32 33 32
10 11 11 12 12 12 10 9 11 12 15 17 19 22 25 28 27 26 24 26 24 23 22 24 26 27 26 26 28 33 38 37 36 36 38 40 34 31 31 32 34 32 32
12 13 13 12 12 11 9 9 11 13 16 18 20 23 25 25 26 27 26 25 22 20 23 24 26 28 29 29 31 34 37 37 36 40 40 33 33 33 34 35 34 36 36
12 12 12 12 11 9 8 11 12 14 16 19 22 24 26 25 27 26 25 21 21 21 23 23 23 25 26 28 32 33 33 33 36 35 30 32 33 34 36 37 38 38 38
Wind_Direction
121 115 108 105 102 99 95 91 91 91 100 108 114 123 120 108 98 80 65 45 34 26 11 358 349 344 341 338 335 332 332 329 326 323 314 311 312 303 302 284 299 294 294
129 120 115 112 105 95 86 82 78 82 88 98 106 114 110 103 88 75 61 43 21 6 359 356 350 345 342 339 337 335 333 328 330 326 322 322 311 306 303 301 304 298 296
143 127 121 112 105 97 88 83 78 80 83 83 88 90 88 88 85 65 40 25 13 4 357 352 347 343 341 339 339 338 338 330 331 329 322 323 313 313 313 305 308 304 299
145 135 125 116 108 97 90 82 82 82 84 88 92 93 91 77 60 44 28 12 2 355 350 347 344 344 345 344 344 343 342 339 333 331 324 315 311 314 316 308 306 305 300
148 141 133 124 114 106 99 92 91 94 96 94 89 81 72 61 43 24 9 359 354 350 349 349 349 346 346 346 348 349 347 344 336 333 327 322 317 313 311 309 310 305 303
155 148 142 133 126 121 114 108 105 103 99 90 81 70 57 42 22 9 2 359 353 347 344 342 339 340 343 346 346 345 342 339 335 330 325 319 315 312 308 303 304 305 306
165 158 151 145 141 138 134 128 122 114 102 89 74 57 38 22 8 1 355 345 338 333 331 332 335 339 341 342 340 338 337 335 332 330 322 313 310 307 305 304 303 304 306
173 166 159 156 156 155 151 145 139 128 116 97 69 45 20 7 0 353 345 337 329 327 329 332 334 337 337 335 335 337 334 329 326 322 319 310 311 307 304 301 303 304 304
175 168 168 168 170 170 166 163 158 148 137 121 73 22 1 356 353 347 339 329 325 325 326 327 329 330 331 334 335 333 330 326 321 318 314 308 308 304 303 299 300 300 299
173 173 173 177 180 182 181 179 176 172 168 167 29 352 351 350 347 341 331 325 323 324 323 325 328 331 334 334 331 329 326 322 318 314 311 307 307 303 301 301 301 296 294
178 177 178 186 191 191 192 194 194 194 200 216 319 341 344 346 340 333 327 325 324 324 325 326 331 335 334 331 329 326 324 318 314 312 310 306 307 303 303 302 300 297 298
181 182 185 193 196 199 201 205 207 211 221 249 321 336 345 344 338 328 323 325 325 323 325 332 335 334 331 328 328 324 319 316 314 312 310 307 308 302 302 302 301 301 300
181 183 191 197 200 204 208 212 215 221 233 264 305 335 340 337 332 326 326 326 323 327 333 334 333 331 329 329 328 321 318 314 311 310 309 307 306 306 305 304 304 303 302
188 192 195 200 203 207 213 216 220 225 235 267 313 328 331 330 328 329 328 326 326 330 331 330 331 330 329 329 323 322 317 312 310 309 307 307 307 306 306 307 305 303 303
195 201 201 202 206 210 213 217 221 225 244 289 319 326 328 328 327 326 324 323 327 330 330 330 331 329 327 326 323 321 315 312 310 309 310 309 307 307 308 307 305 306 305
204 208 208 207 208 211 214 218 221 231 265 308 322 325 327 328 323 320 322 328 330 330 328 328 328 327 324 322 323 321 315 313 312 312 312 312 313 311 309 308 304 304 303
195 204 206 206 210 212 215 218 224 244 286 314 321 325 327 320 319 324 328 330 329 328 327 325 325 324 321 322 323 321 317 315 314 313 314 314 313 312 312 312 307 304 308
194 211 210 211 210 212 215 220 228 259 300 319 322 322 318 320 325 327 328 327 326 326 323 321 322 319 318 321 320 322 324 318 316 316 314 312 312 314 314 312 308 309 307
215 215 215 213 213 213 215 220 238 270 303 320 319 316 319 323 326 326 325 326 324 323 322 320 319 317 318 319 325 330 325 320 319 316 314 312 314 315 314 316 319 314 313
210 209 203 203 206 210 216 227 254 285 308 318 313 316 322 325 324 323 324 324 322 320 319 319 318 317 320 321 325 328 324 321 318 317 316 316 315 312 317 321 319 316 317
192 193 193 200 208 213 223 243 272 302 315 310 314 320 323 322 323 324 325 323 322 320 319 318 319 319 320 324 323 328 327 321 318 318 318 317 315 320 316 314 311 312 313
213 210 208 214 219 224 236 258 286 302 308 313 317 319 321 323 325 324 325 324 321 320 322 322 323 324 324 323 325 327 325 322 319 317 315 316 321 319 318 316 315 316 315
243 236 229 227 231 240 254 273 292 304 312 314 316 320 322 323 323 323 324 324 324 324 324 324 324 323 325 325 324 325 326 323 319 316 318 320 320 320 320 320 320 320 321
249 240 234 234 238 247 257 281 301 307 309 312 317 321 322 323 325 324 323 323 326 325 323 322 320 320 323 324 324 326 326 323 320 322 325 321 319 321 320 323 324 325 323
244 238 231 229 238 247 268 291 297 303 308 313 318 321 322 323 324 324 323 323 322 323 318 315 315 318 318 320 322 322 321 320 321 323 323 323 323 325 327 326 326 327 326
238 228 225 227 236 251 270 282 294 303 310 316 320 321 324 323 324 323 322 319 315 314 320 315 312 314 312 318 319 320 320 321 322 323 323 322 326 325 325 325 325 327 324